Gustavus, AK

3:37 PM AKST on December 16, 2017 (GMT -0900)
Gustavus

Weather History for PAGS - August, 2012

Change the Weather History Date:

Thursday, August 16, 2012

  Actual Average Record
Temperature  
Mean Temperature 58 °F -  
Max Temperature 64 °F 64 °F 82 °F (2004)
Min Temperature 53 °F 44 °F 33 °F (1978)
Degree Days  
Heating Degree Days 6    
Growing Degree Days 8 (Base 50)    
Moisture  
Dew Point 51 °F    
Average Humidity 77    
Maximum Humidity 88    
Minimum Humidity 64    
Precipitation  
Precipitation 0.00 in - - ()
Sea Level Pressure  
Sea Level Pressure 30.13 in    
Wind  
Wind Speed 3 mph (South)    
Max Wind Speed 10 mph    
Max Gust Speed -    
Visibility 10 miles    
Events      
Averages and records for this station are not official NWS values.
T = Trace of Precipitation, MM = Missing Value Source: NWS Daily Summary

Daily Weather History Graph

Daily Weather History Graph

Search for Another Location

Airport or City:

Trip Planner

Search our weather history database for the weather conditions in past years. The results will help you decide how hot, cold, wet, or windy it might be!

Date:

Astronomy

Aug. 16, 2012 Rise Set
Actual Time 5:27 AM AKDT 8:44 PM AKDT
Civil Twilight 4:40 AM AKDT 9:31 PM AKDT
Nautical Twilight 3:34 AM AKDT 10:36 PM AKDT
Astronomical Twilight 1:17 AM AKDT 12:32 AM AKDT
Moon 4:36 AM AKDT (8/16) 7:46 PM AKDT (8/16)
Length of Visible Light 16h 50m
Length of Day
15h 16m
Waning Crescent, 1% of the Moon is Illuminated
Aug 16
Waning Crescent
Aug 17
New
Aug 24
First Quarter
Aug 31
Full
Sep 8
Last Quarter

Hourly Weather History & Observations

Time (AKDT) Temp. Dew Point Humidity Pressure Visibility Wind Dir Wind Speed Gust Speed Precip Events Conditions
12:16 AM 55.4 °F 50.0 °F 82% 30.17 in 10.0 mi South 3.5 mph - N/A   Overcast
12:36 AM 55.4 °F 50.0 °F 82% 30.16 in 10.0 mi Calm Calm - N/A   Overcast
12:56 AM 55.4 °F 50.0 °F 82% 30.16 in 10.0 mi Calm Calm - N/A   Overcast
1:16 AM 55.4 °F 50.0 °F 82% 30.16 in 10.0 mi Calm Calm - N/A   Overcast
1:36 AM 55.4 °F 50.0 °F 82% 30.16 in 10.0 mi SE 3.5 mph - N/A   Overcast
1:56 AM 55.4 °F 50.0 °F 82% 30.16 in 10.0 mi SSE 4.6 mph - N/A   Overcast
2:16 AM 55.4 °F 50.0 °F 82% 30.16 in 10.0 mi SE 4.6 mph - N/A   Overcast
2:36 AM 55.4 °F 50.0 °F 82% 30.15 in 10.0 mi ESE 4.6 mph - N/A   Overcast
2:56 AM 55.4 °F 50.0 °F 82% 30.15 in 10.0 mi SE 4.6 mph - N/A   Overcast
3:16 AM 55.4 °F 50.0 °F 82% 30.15 in 10.0 mi ESE 4.6 mph - N/A   Overcast
3:36 AM 55.4 °F 50.0 °F 82% 30.15 in 10.0 mi SE 3.5 mph - N/A   Overcast
3:56 AM 55.4 °F 50.0 °F 82% 30.15 in 10.0 mi SE 4.6 mph - N/A   Overcast
4:16 AM 55.4 °F 50.0 °F 82% 30.14 in 10.0 mi ESE 5.8 mph - N/A   Overcast
4:36 AM 55.4 °F 50.0 °F 82% 30.14 in 10.0 mi SSE 3.5 mph - N/A   Overcast
4:56 AM 55.4 °F 50.0 °F 82% 30.14 in 10.0 mi East 4.6 mph - N/A   Overcast
5:36 AM 55.4 °F 50.0 °F 82% 30.14 in 10.0 mi SE 4.6 mph - N/A   Overcast
5:56 AM 55.4 °F 48.2 °F 77% 30.14 in 10.0 mi SSE 3.5 mph - N/A   Scattered Clouds
6:16 AM 53.6 °F 48.2 °F 82% 30.14 in 10.0 mi Calm Calm - N/A   Mostly Cloudy
6:36 AM 55.4 °F 48.2 °F 77% 30.14 in 10.0 mi SE 3.5 mph - N/A   Overcast
6:56 AM 55.4 °F 48.2 °F 77% 30.14 in 10.0 mi SE 3.5 mph - N/A   Overcast
7:16 AM 55.4 °F 50.0 °F 82% 30.14 in 10.0 mi Calm Calm - N/A   Overcast
7:36 AM 55.4 °F 50.0 °F 82% 30.14 in 10.0 mi Calm Calm - N/A   Overcast
7:56 AM 55.4 °F 50.0 °F 82% 30.15 in 10.0 mi Calm Calm - N/A   Overcast
8:16 AM 55.4 °F 50.0 °F 82% 30.15 in 10.0 mi Calm Calm - N/A   Overcast
8:36 AM 55.4 °F 51.8 °F 88% 30.15 in 10.0 mi SE 3.5 mph - N/A   Overcast
8:56 AM 57.2 °F 51.8 °F 82% 30.15 in 10.0 mi SE 3.5 mph - N/A   Overcast
9:16 AM 57.2 °F 50.0 °F 77% 30.15 in 10.0 mi Calm Calm - N/A   Overcast
9:36 AM 57.2 °F 51.8 °F 82% 30.15 in 10.0 mi South 3.5 mph - N/A   Overcast
9:56 AM 57.2 °F 50.0 °F 77% 30.15 in 10.0 mi SSW 3.5 mph - N/A   Overcast
10:16 AM 57.2 °F 50.0 °F 77% 30.15 in 10.0 mi Calm Calm - N/A   Overcast
10:36 AM 57.2 °F 51.8 °F 82% 30.15 in 10.0 mi Calm Calm - N/A   Overcast
10:56 AM 57.2 °F 51.8 °F 82% 30.15 in 10.0 mi Calm Calm - N/A   Overcast
11:16 AM 59.0 °F 51.8 °F 77% 30.15 in 10.0 mi Calm Calm - N/A   Overcast
11:36 AM 60.8 °F 51.8 °F 72% 30.14 in 10.0 mi South 3.5 mph - N/A   Overcast
11:56 AM 60.8 °F 51.8 °F 72% 30.14 in 10.0 mi SSW 6.9 mph - N/A   Overcast
12:16 PM 60.8 °F 51.8 °F 72% 30.14 in 10.0 mi South 4.6 mph - N/A   Overcast
12:36 PM 60.8 °F 51.8 °F 72% 30.15 in 10.0 mi South 6.9 mph - N/A   Overcast
12:56 PM 60.8 °F 53.6 °F 77% 30.14 in 10.0 mi ESE 5.8 mph - N/A   Overcast
1:16 PM 62.6 °F 53.6 °F 72% 30.14 in 10.0 mi SSW 4.6 mph - N/A   Overcast
1:36 PM 62.6 °F 53.6 °F 72% 30.14 in 10.0 mi SW 6.9 mph - N/A   Overcast
1:56 PM 62.6 °F 53.6 °F 72% 30.14 in 10.0 mi SW 9.2 mph - N/A   Overcast
2:16 PM 62.6 °F 51.8 °F 68% 30.14 in 10.0 mi SW 8.1 mph - N/A   Overcast
2:36 PM 62.6 °F 51.8 °F 68% 30.14 in 10.0 mi SSW 8.1 mph - N/A   Overcast
2:56 PM 62.6 °F 53.6 °F 72% 30.13 in 10.0 mi SSW 5.8 mph - N/A   Overcast
3:16 PM 64.4 °F 51.8 °F 64% 30.12 in 10.0 mi WSW 9.2 mph - N/A   Overcast
3:36 PM 64.4 °F 51.8 °F 64% 30.12 in 10.0 mi SW 10.4 mph - N/A   Mostly Cloudy
3:56 PM 62.6 °F 51.8 °F 68% 30.12 in 10.0 mi SSW 8.1 mph - N/A   Mostly Cloudy
4:16 PM 62.6 °F 51.8 °F 68% 30.12 in 10.0 mi SW 8.1 mph - N/A   Partly Cloudy
4:36 PM 62.6 °F 51.8 °F 68% 30.11 in 10.0 mi SSW 9.2 mph - N/A   Scattered Clouds
4:56 PM 62.6 °F 51.8 °F 68% 30.11 in 10.0 mi SW 9.2 mph - N/A   Mostly Cloudy
5:16 PM 60.8 °F 51.8 °F 72% 30.11 in 10.0 mi SSW 6.9 mph - N/A   Mostly Cloudy
5:36 PM 60.8 °F 51.8 °F 72% 30.11 in 10.0 mi SW 6.9 mph - N/A   Overcast
5:56 PM 62.6 °F 51.8 °F 68% 30.10 in 10.0 mi SW 3.5 mph - N/A   Overcast
6:16 PM 62.6 °F 51.8 °F 68% 30.09 in 10.0 mi SW 5.8 mph - N/A   Overcast
6:36 PM 62.6 °F 51.8 °F 68% 30.09 in 10.0 mi WSW 5.8 mph - N/A   Overcast
6:56 PM 60.8 °F 51.8 °F 72% 30.09 in 10.0 mi SW 4.6 mph - N/A   Overcast
7:16 PM 60.8 °F 51.8 °F 72% 30.09 in 10.0 mi WSW 5.8 mph - N/A   Overcast
7:36 PM 60.8 °F 51.8 °F 72% 30.09 in 10.0 mi WSW 3.5 mph - N/A   Overcast
7:56 PM 60.8 °F 51.8 °F 72% 30.09 in 10.0 mi West 3.5 mph - N/A   Overcast
8:16 PM 59.0 °F 51.8 °F 77% 30.09 in 10.0 mi West 3.5 mph - N/A   Overcast
8:36 PM 59.0 °F 51.8 °F 77% 30.09 in 10.0 mi West 5.8 mph - N/A   Overcast
8:56 PM 57.2 °F 50.0 °F 77% 30.09 in 10.0 mi WSW 5.8 mph - N/A   Overcast
9:16 PM 57.2 °F 50.0 °F 77% 30.09 in 10.0 mi WSW 4.6 mph - N/A   Overcast
9:36 PM 57.2 °F 50.0 °F 77% 30.09 in 10.0 mi Calm Calm - N/A   Overcast
9:56 PM 55.4 °F 50.0 °F 82% 30.08 in 10.0 mi Calm Calm - N/A   Overcast
10:16 PM 55.4 °F 50.0 °F 82% 30.08 in 10.0 mi Calm Calm - N/A   Overcast
10:36 PM 55.4 °F 48.2 °F 77% 30.08 in 10.0 mi Calm Calm - N/A   Overcast
10:56 PM 55.4 °F 50.0 °F 82% 30.08 in 10.0 mi SSW 3.5 mph - N/A   Overcast
11:16 PM 55.4 °F 50.0 °F 82% 30.08 in 10.0 mi Calm Calm - N/A   Overcast
11:36 PM 55.4 °F 48.2 °F 77% 30.07 in 10.0 mi Calm Calm - N/A   Overcast
11:56 PM 55.4 °F 50.0 °F 82% 30.07 in 10.0 mi Calm Calm - N/A   Overcast